GW0881 Weather Reports


time (UTC)temp
C
wind
direction
speed
KPH
gust
KPH
rain 1hr
cm
rain 24hr
cm
rain mn
cm
humidity
%
barometer
mb
20260502212814 18 249 4.8 4.8 0.00 0.00 0.00 33 1009.9
20260502212312 18 254 6.4 8.0 0.00 0.00 0.00 34 1010.0
20260502211809 17 276 6.4 9.7 0.00 0.00 0.00 33 1009.9
20260502211304 18 264 6.4 8.0 0.00 0.00 0.00 35 1010.2
20260502210802 18 285 6.4 8.0 0.00 0.00 0.00 34 1010.3
20260502210259 18 264 4.8 4.8 0.00 0.00 0.00 33 1010.4
20260502205756 18 246 11.3 12.9 0.00 0.00 0.00 33 1010.5
20260502205252 18 261 8.0 9.7 0.00 0.00 0.00 32 1010.4
20260502204749 18 273 11.3 12.9 0.00 0.00 0.00 33 1010.6
20260502204246 18 260 9.7 11.3 0.00 0.00 0.00 33 1010.6
20260502203744 18 242 8.0 9.7 0.00 0.00 0.00 33 1010.7
20260502203242 17 300 4.8 4.8 0.00 0.00 0.00 34 1010.8
20260502202736 17 271 8.0 9.7 0.00 0.00 0.00 33 1011.0
20260502202234 17 268 11.3 12.9 0.00 0.00 0.00 34 1011.0
20260502201731 17 275 6.4 8.0 0.00 0.00 0.00 35 1011.1
20260502201228 17 270 8.0 9.7 0.00 0.00 0.00 33 1011.4
20260502200724 17 246 8.0 9.7 0.00 0.00 0.00 34 1011.4
20260502200220 17 262 11.3 12.9 0.00 0.00 0.00 34 1011.6
20260502195719 17 270 8.0 11.3 0.00 0.00 0.00 34 1011.7
20260502195215 17 256 3.2 3.2 0.00 0.00 0.00 36 1011.7
20260502194711 17 306 11.3 12.9 0.00 0.00 0.00 33 1011.8
20260502194209 17 274 8.0 9.7 0.00 0.00 0.00 35 1012.0
20260502193704 17 265 8.0 11.3 0.00 0.00 0.00 35 1012.1
20260502193202 16 277 8.0 9.7 0.00 0.00 0.00 35 1012.1
20260502192657 16 281 8.0 11.3 0.00 0.00 0.00 35 1011.9
20260502192155 16 260 11.3 11.3 0.00 0.00 0.00 35 1012.3
20260502191651 16 274 6.4 11.3 0.00 0.00 0.00 36 1012.4
20260502191149 16 247 4.8 8.0 0.00 0.00 0.00 36 1012.5
20260502190646 15 250 4.8 9.7 0.00 0.00 0.00 37 1012.6
20260502190144 16 237 6.4 8.0 0.00 0.00 0.00 36 1012.7
20260502185638 16 222 1.6 1.6 0.00 0.00 0.00 34 1012.9
20260502185135 16 231 4.8 4.8 0.00 0.00 0.00 36 1013.0
20260502184631 16 248 4.8 4.8 0.00 0.00 0.00 35 1013.1
20260502184127 15 216 3.2 3.2 0.00 0.00 0.00 36 1013.4
20260502183624 16 255 6.4 8.0 0.00 0.00 0.00 36 1013.4
20260502183120 16 209 8.0 9.7 0.00 0.00 0.00 37 1013.6
20260502182615 16 235 8.0 9.7 0.00 0.00 0.00 36 1013.5
20260502182111 15 200 3.2 3.2 0.00 0.00 0.00 35 1013.9
20260502181609 15 243 3.2 3.2 0.00 0.00 0.00 36 1013.8
20260502181108 15 249 8.0 9.7 0.00 0.00 0.00 35 1013.9
20260502180604 15 222 8.0 9.7 0.00 0.00 0.00 35 1013.8
20260502164007 13 177 6.4 8.0 0.00 0.00 0.00 36 1015.4
20260502163503 13 262 4.8 4.8 0.00 0.00 0.00 37 1015.6
20260502163000 13 230 1.6 1.6 0.00 0.00 0.00 38 1015.5
20260502162457 13 265 8.0 8.0 0.00 0.00 0.00 37 1015.7
20260502161954 12 223 1.6 1.6 0.00 0.00 0.00 38 1015.7
20260502161450 12 260 3.2 3.2 0.00 0.00 0.00 38 1015.7
20260502160949 12 244 6.4 8.0 0.00 0.00 0.00 40 1015.8
20260502160446 12 282 4.8 4.8 0.00 0.00 0.00 39 1015.8
20260502151935 11 278 6.4 8.0 0.00 0.00 0.00 43 1016.4
20260502151432 11 249 8.0 12.9 0.00 0.00 0.00 42 1016.4
20260502150929 11 266 9.7 11.3 0.00 0.00 0.00 43 1016.5
20260502150426 11 273 8.0 9.7 0.00 0.00 0.00 43 1016.6
20260502130312 6 273 3.2 3.2 0.00 0.00 0.00 66 1017.5
20260502123757 4 252 1.6 1.6 0.00 0.00 0.00 69 1017.4
20260502123254 3 260 1.6 3.2 0.00 0.00 0.00 71 1017.3
20260502122751 3 275 1.6 3.2 0.00 0.00 0.00 73 1017.3
20260502122247 3 253 1.6 3.2 0.00 0.00 0.00 75 1017.4
20260502121745 2 229 1.6 1.6 0.00 0.00 0.00 76 1017.3
20260502121243 1 223 1.6 1.6 0.00 0.00 0.00 79 1017.4
20260502120739 1 211 0.0 0.0 0.00 0.00 0.00 79 1017.2
20260502120236 1 211 0.0 0.0 0.00 0.00 0.00 78 1017.2
20260502115734 1 211 0.0 0.0 0.00 0.00 0.00 78 1017.2
20260502115231 1 211 0.0 0.0 0.00 0.00 0.00 78 1017.3
20260502114726 1 211 0.0 0.0 0.00 0.00 0.00 78 1017.3
20260502114224 1 211 0.0 0.0 0.00 0.00 0.00 78 1017.1
20260502113721 1 211 0.0 0.0 0.00 0.00 0.00 78 1017.2
20260502113219 1 213 0.0 0.0 0.00 0.00 0.00 76 1017.4
20260502112716 1 213 0.0 0.0 0.00 0.00 0.00 76 1017.4
20260502112214 1 220 0.0 1.6 0.00 0.00 0.00 78 1017.3
20260502111711 1 207 0.0 0.0 0.00 0.00 0.00 77 1017.2
20260502111209 1 201 0.0 0.0 0.00 0.00 0.00 77 1017.2
20260502110706 2 198 0.0 0.0 0.00 0.00 0.00 74 1017.2
20260502110203 2 230 1.6 1.6 0.00 0.00 0.00 72 1017.1
20260502105701 2 227 1.6 1.6 0.00 0.00 0.00 72 1017.4
20260502105157 2 228 1.6 1.6 0.00 0.00 0.00 72 1017.2
20260502104655 2 254 1.6 1.6 0.00 0.00 0.00 72 1017.2
20260502104152 2 226 1.6 1.6 0.00 0.00 0.00 71 1017.1
20260502103649 2 227 1.6 1.6 0.00 0.00 0.00 71 1017.2
20260502103148 2 248 1.6 3.2 0.00 0.00 0.00 71 1017.3
20260502102644 2 230 3.2 3.2 0.00 0.00 0.00 71 1017.0
20260502102141 2 237 1.6 3.2 0.00 0.00 0.00 71 1017.1
20260502101639 2 233 1.6 1.6 0.00 0.00 0.00 71 1017.0
20260502101137 2 231 1.6 1.6 0.00 0.00 0.00 72 1017.0
20260502100635 2 222 0.0 1.6 0.00 0.00 0.00 72 1016.8
20260502100133 2 223 0.0 0.0 0.00 0.00 0.00 71 1016.8
20260502091107 2 223 0.0 1.6 0.00 0.00 0.00 73 1016.8
20260502090604 2 212 1.6 1.6 0.00 0.00 0.00 73 1016.8
20260502071458 4 218 0.0 0.0 0.00 0.00 0.00 61 1017.2
20260502070956 4 217 1.6 1.6 0.00 0.00 0.00 60 1017.0
20260502070454 5 219 0.0 1.6 0.00 0.00 0.00 60 1017.3
20260502065952 5 243 1.6 3.2 0.00 0.00 0.00 60 1017.1
20260502065451 5 228 1.6 1.6 0.00 0.00 0.00 59 1017.2
20260502064948 5 219 0.0 0.0 0.00 0.00 0.00 59 1017.1
20260502064446 5 232 1.6 1.6 0.00 0.00 0.00 58 1017.3
20260502063943 5 233 1.6 1.6 0.00 0.00 0.00 58 1017.2
20260502063441 5 217 0.0 1.6 0.00 0.00 0.00 57 1017.5
20260502062938 5 251 1.6 3.2 0.00 0.00 0.00 57 1017.3
20260502062435 5 227 1.6 1.6 0.00 0.00 0.00 57 1017.3
20260502061934 5 229 1.6 1.6 0.00 0.00 0.00 56 1017.3
20260502061431 5 222 1.6 1.6 0.00 0.00 0.00 56 1017.3
20260502060927 5 236 1.6 1.6 0.00 0.00 0.00 57 1017.4
20260502060422 5 251 3.2 3.2 0.00 0.00 0.00 56 1017.3
20260502055920 5 251 1.6 3.2 0.00 0.00 0.00 57 1017.4
20260502055418 5 234 0.0 1.6 0.00 0.00 0.00 57 1017.2
20260502054917 5 221 0.0 1.6 0.00 0.00 0.00 56 1017.3
20260502054414 5 222 1.6 1.6 0.00 0.00 0.00 56 1017.4
20260502053912 5 223 0.0 1.6 0.00 0.00 0.00 56 1017.3
20260502053409 5 257 3.2 3.2 0.00 0.00 0.00 55 1017.4
20260502052906 5 237 1.6 1.6 0.00 0.00 0.00 55 1017.5
20260502052405 5 221 1.6 1.6 0.00 0.00 0.00 55 1017.3
20260502051902 5 238 1.6 1.6 0.00 0.00 0.00 55 1017.4
20260502051400 5 228 1.6 1.6 0.00 0.00 0.00 55 1017.4
20260502050857 5 231 1.6 1.6 0.00 0.00 0.00 55 1017.4
20260502050353 5 231 1.6 1.6 0.00 0.00 0.00 54 1017.4
20260502045850 6 228 1.6 1.6 0.00 0.00 0.00 54 1017.4
20260502045347 6 224 1.6 1.6 0.00 0.00 0.00 54 1017.4
20260502044844 6 235 1.6 1.6 0.00 0.00 0.00 53 1017.4
20260502044340 6 237 1.6 1.6 0.00 0.00 0.00 53 1017.3
20260502043837 6 224 1.6 1.6 0.00 0.00 0.00 54 1017.3
20260502043335 6 227 1.6 1.6 0.00 0.00 0.00 54 1017.2
20260502042834 6 218 0.0 0.0 0.00 0.00 0.00 55 1017.3
20260502042332 5 227 1.6 1.6 0.00 0.00 0.00 55 1017.4
20260502041829 5 227 1.6 1.6 0.00 0.00 0.00 58 1017.4
20260502041326 4 220 0.0 0.0 0.00 0.00 0.00 65 1017.4
20260502040823 3 215 0.0 0.0 0.00 0.00 0.00 63 1017.5
20260502040320 3 208 0.0 0.0 0.00 0.00 0.00 68 1017.3
20260502035816 3 209 0.0 0.0 0.00 0.00 0.00 68 1017.3
20260502035313 3 207 0.0 0.0 0.00 0.00 0.00 70 1017.4
20260502034811 3 205 0.0 0.0 0.00 0.00 0.00 74 1017.3
20260502034309 3 203 0.0 0.0 0.00 0.00 0.00 75 1017.4
20260502033807 3 208 0.0 0.0 0.00 0.00 0.00 76 1017.5
20260502033304 3 213 0.0 0.0 0.00 0.00 0.00 75 1017.5
20260502032801 3 213 0.0 0.0 0.00 0.00 0.00 75 1017.5
20260502032257 3 209 0.0 1.6 0.00 0.00 0.00 72 1017.2
20260502031755 3 207 0.0 1.6 0.00 0.00 0.00 73 1017.3
20260502031253 3 203 0.0 0.0 0.00 0.00 0.00 73 1017.4
20260502030751 3 213 0.0 0.0 0.00 0.00 0.00 74 1017.2
20260502030248 3 207 0.0 0.0 0.00 0.00 0.00 74 1017.4
20260502025746 3 208 0.0 0.0 0.00 0.00 0.00 75 1017.3
20260502025244 3 209 0.0 0.0 0.00 0.00 0.00 73 1017.6
20260502024741 4 212 0.0 0.0 0.00 0.00 0.00 73 1017.3
20260502024239 4 213 0.0 0.0 0.00 0.00 0.00 72 1017.4
20260502023737 4 213 0.0 0.0 0.00 0.00 0.00 70 1017.4
20260502023234 4 211 0.0 0.0 0.00 0.00 0.00 72 1017.5
20260502022732 4 208 0.0 0.0 0.00 0.00 0.00 70 1017.6
20260502022227 5 213 0.0 0.0 0.00 0.00 0.00 69 1017.4
20260502021725 5 211 0.0 0.0 0.00 0.00 0.00 69 1017.3
20260502021222 5 207 0.0 0.0 0.00 0.00 0.00 69 1017.3
20260502020719 5 211 0.0 0.0 0.00 0.00 0.00 68 1017.3
20260502020216 5 211 0.0 0.0 0.00 0.00 0.00 67 1017.0
20260502015714 5 211 0.0 0.0 0.00 0.00 0.00 66 1017.1
20260502015210 6 212 0.0 0.0 0.00 0.00 0.00 64 1017.1
20260502014708 6 213 0.0 0.0 0.00 0.00 0.00 63 1016.8
20260502014205 6 213 0.0 0.0 0.00 0.00 0.00 63 1016.8
20260502013701 6 213 0.0 0.0 0.00 0.00 0.00 62 1016.7
20260502013155 7 209 0.0 0.0 0.00 0.00 0.00 54 1016.7
20260502012654 7 214 0.0 0.0 0.00 0.00 0.00 56 1016.6
20260502012152 7 211 0.0 0.0 0.00 0.00 0.00 56 1016.5
20260502011648 7 211 0.0 0.0 0.00 0.00 0.00 55 1016.6
20260502011144 8 210 0.0 0.0 0.00 0.00 0.00 50 1016.6
20260502010642 8 207 0.0 0.0 0.00 0.00 0.00 43 1016.5
20260502010138 8 210 0.0 0.0 0.00 0.00 0.00 46 1016.5
20260502005635 9 213 0.0 0.0 0.00 0.00 0.00 52 1016.6
20260502005133 9 203 0.0 0.0 0.00 0.00 0.00 42 1016.5
20260502004628 9 204 0.0 0.0 0.00 0.00 0.00 43 1016.5
20260502004126 10 206 0.0 0.0 0.00 0.00 0.00 42 1016.5
20260502003624 10 212 0.0 0.0 0.00 0.00 0.00 40 1016.5
20260502003120 10 212 0.0 0.0 0.00 0.00 0.00 38 1016.4
20260502002616 10 208 0.0 0.0 0.00 0.00 0.00 37 1016.5
20260502002114 10 192 0.0 0.0 0.00 0.00 0.00 39 1016.5
20260502001612 10 172 1.6 1.6 0.00 0.00 0.00 37 1016.5
20260502001108 10 170 0.0 0.0 0.00 0.00 0.00 38 1016.7
20260502000607 10 181 0.0 0.0 0.00 0.00 0.00 36 1016.6
20260501235559 10 53 3.2 3.2 0.00 0.00 0.00 37 1016.6
20260501235055 10 357 4.8 4.8 0.00 0.00 0.00 35 1016.5
20260501234551 10 18 4.8 8.0 0.00 0.00 0.00 36 1016.5
20260501234049 10 352 4.8 4.8 0.00 0.00 0.00 37 1016.5
20260501233547 10 355 4.8 4.8 0.00 0.00 0.00 34 1016.3
20260501233044 10 53 1.6 1.6 0.00 0.00 0.00 35 1016.4
20260501232540 11 24 9.7 11.3 0.00 0.00 0.00 35 1016.4
20260501232037 11 61 4.8 8.0 0.00 0.00 0.00 34 1016.4
20260501231535 11 320 4.8 4.8 0.00 0.00 0.00 34 1016.2
20260501231033 11 303 3.2 3.2 0.00 0.00 0.00 32 1016.4
20260501230532 11 293 4.8 4.8 0.00 0.00 0.00 32 1016.4
20260501230029 11 348 4.8 8.0 0.00 0.00 0.00 33 1016.6
20260501225526 11 307 6.4 8.0 0.00 0.00 0.00 34 1016.4
20260501225022 11 309 3.2 4.8 0.00 0.00 0.00 34 1016.3
20260501224520 10 29 3.2 3.2 0.00 0.00 0.00 36 1016.5
20260501224017 11 348 4.8 4.8 0.00 0.00 0.00 34 1016.3
20260501223513 11 0 6.4 9.7 0.00 0.00 0.00 35 1016.2
20260501223010 11 344 4.8 4.8 0.00 0.00 0.00 33 1016.3
20260501222506 11 3 9.7 14.5 0.00 0.00 0.00 35 1016.3
20260501222003 11 270 6.4 8.0 0.00 0.00 0.00 35 1016.2
20260501221459 10 279 4.8 4.8 0.00 0.00 0.00 35 1016.6
20260501220957 10 344 12.9 12.9 0.00 0.00 0.00 35 1016.7
20260501220455 10 59 4.8 4.8 0.00 0.00 0.00 36 1016.5
20260501215951 11 40 4.8 8.0 0.00 0.00 0.00 37 1016.8
20260501215448 10 339 3.2 4.8 0.00 0.00 0.00 35 1016.6
20260501214943 10 22 3.2 4.8 0.00 0.00 0.00 36 1016.6
20260501214438 10 8 4.8 4.8 0.00 0.00 0.00 34 1016.7
20260501213934 10 339 3.2 4.8 0.00 0.00 0.00 38 1016.6
20260501213432 10 46 4.8 8.0 0.00 0.00 0.00 38 1016.8